Theta_e
305 309 312 314 318 311 316 316 310 317 317 311 311 311 311 311 316 316 304 303 304 306 304 305 309 316 316 318 325 332 338 341 341 339 339 337 334 334 335 336 336 340 340 342 342 340 341 341 340
307 309 313 308 313 313 310 309 310 309 309 307 307 309 308 311 305 303 303 303 304 304 304 304 305 310 313 313 315 321 331 338 340 341 338 338 338 336 336 337 338 337 340 343 343 341 340 340 341
306 306 308 309 304 309 308 308 307 306 306 307 305 303 304 304 301 301 302 302 303 303 303 304 307 310 310 309 312 312 320 327 334 338 340 339 338 336 337 336 340 340 340 340 343 343 341 340 340
304 303 298 305 309 309 305 306 305 305 305 303 303 303 300 300 301 301 301 302 302 302 302 302 304 306 309 308 309 311 312 316 324 333 337 339 339 337 336 338 335 341 340 342 343 342 341 339 340
303 297 300 302 303 305 304 304 304 303 302 303 303 301 301 299 300 301 301 301 302 301 301 301 301 301 302 304 307 310 309 309 314 322 334 337 338 338 336 338 336 338 339 340 343 342 340 338 338
298 296 300 303 304 303 302 302 302 302 302 302 302 300 300 299 300 300 300 300 300 300 300 299 300 300 300 301 301 306 306 304 305 311 321 332 337 338 337 337 337 335 336 339 339 338 338 335 336
300 297 300 302 304 303 303 302 301 302 302 302 300 301 299 299 299 299 299 299 299 298 298 298 298 298 298 300 300 300 301 303 302 303 306 321 332 336 338 337 337 337 335 334 337 335 337 334 331
297 298 304 303 302 304 302 302 301 301 302 301 301 300 299 299 299 299 298 298 297 297 297 296 296 296 296 297 298 299 300 301 301 302 303 307 323 332 335 337 336 336 337 336 334 335 336 336 333
299 299 300 304 303 303 301 302 301 300 301 301 299 297 298 298 298 297 297 296 296 295 295 295 295 295 295 295 296 297 298 300 300 301 302 304 309 317 328 334 336 337 336 337 337 336 335 336 334
299 299 302 302 301 301 301 301 300 301 301 300 297 296 297 297 297 296 295 294 295 294 294 294 294 293 293 294 294 295 297 298 300 300 301 302 306 310 313 329 334 336 336 336 337 337 335 336 335
302 302 303 302 301 301 301 300 299 299 298 297 298 297 296 295 295 294 294 294 293 293 293 293 292 292 292 292 293 294 296 297 298 300 300 301 302 307 309 314 329 334 335 335 336 336 336 336 336
301 301 302 301 301 300 300 299 299 298 298 298 298 297 295 294 293 293 293 292 292 292 291 291 291 291 291 292 292 293 294 296 297 300 301 301 301 303 307 309 318 331 334 334 335 336 336 336 335
301 301 302 301 300 299 299 298 298 298 297 296 295 295 295 294 293 293 293 292 291 291 291 290 290 290 290 291 291 291 292 294 296 298 301 302 301 301 304 308 310 322 332 334 334 335 335 335 335
301 302 301 300 300 300 300 299 299 298 295 294 295 294 294 293 292 292 291 290 290 290 290 290 289 289 289 289 290 290 292 293 295 296 298 301 302 302 303 307 308 312 329 333 334 334 335 335 335
301 301 301 301 300 301 299 300 298 297 295 295 294 294 294 293 293 291 290 290 289 289 288 288 288 288 288 289 289 290 291 292 295 295 296 298 301 303 304 305 307 308 325 331 333 334 335 334 330
302 302 303 303 300 300 300 301 300 296 295 295 294 292 293 293 292 291 290 289 289 289 288 288 287 287 288 288 289 289 290 291 294 294 296 298 299 302 305 305 306 306 320 326 328 332 331 329 327
302 304 303 302 300 299 299 300 299 295 295 294 293 292 291 291 289 289 288 288 288 287 287 286 286 286 286 287 288 288 289 292 294 294 295 297 300 303 305 306 306 307 310 327 324 325 325 326 327
306 304 302 301 301 299 299 299 299 297 295 295 293 292 291 290 288 288 288 287 287 287 286 285 285 285 286 286 287 288 289 292 294 294 294 296 299 303 305 306 306 308 307 323 323 321 323 324 323
302 301 301 299 300 299 299 298 298 297 296 296 293 292 291 288 287 287 287 287 286 286 285 284 284 285 285 286 287 288 288 289 292 293 293 295 299 303 305 307 305 307 308 314 323 322 323 322 322
301 301 300 299 299 298 298 298 298 296 296 295 294 291 289 287 286 285 286 286 285 285 284 284 284 284 284 285 287 286 288 289 290 292 294 299 303 305 306 307 307 304 309 308 321 324 323 319 322
301 301 301 301 298 297 296 297 294 297 295 293 292 290 287 286 285 284 284 285 284 284 284 284 284 283 284 285 284 286 287 288 290 293 295 299 301 306 307 308 306 306 312 311 313 322 323 318 317
301 300 299 299 295 298 295 298 297 298 296 295 292 289 285 285 284 283 284 284 283 283 283 283 282 282 284 283 284 284 286 287 288 290 292 296 300 301 307 308 309 311 312 313 315 319 320 321 318
300 298 298 298 293 290 296 290 297 296 296 295 293 288 285 285 283 282 282 283 283 282 282 281 281 282 282 282 282 283 284 286 287 288 291 296 297 296 301 304 304 305 309 311 310 314 319 319 320
297 300 298 297 296 291 293 295 300 295 293 294 290 287 287 285 284 283 282 282 282 281 281 280 281 281 282 282 282 282 284 284 286 288 290 295 293 293 296 301 301 301 300 304 307 310 314 318 320
298 298 293 293 290 296 295 297 299 293 291 289 288 287 283 283 283 282 281 281 281 280 280 280 280 281 281 281 281 282 283 283 284 287 289 291 291 293 296 298 298 298 298 300 301 304 308 313 316
299 295 295 292 293 294 297 295 298 289 282 278 280 278 284 283 282 281 280 279 279 279 279 279 280 280 280 280 280 281 282 282 283 285 286 288 287 290 295 295 296 297 298 299 302 302 304 307 312
299 301 295 288 285 292 292 294 297 293 288 283 281 287 284 282 281 279 279 279 279 278 279 279 279 279 279 280 280 280 281 281 282 284 285 286 288 291 292 293 293 293 296 295 300 301 302 304 307
297 296 297 291 293 293 294 293 297 293 288 285 285 284 282 281 280 279 278 278 278 278 278 278 279 279 279 279 279 280 280 280 281 283 284 285 286 288 290 292 291 291 292 292 293 297 299 301 302
295 296 296 293 291 290 296 296 288 289 283 285 286 284 279 278 277 276 277 277 277 278 278 278 279 278 279 279 279 279 279 280 281 281 282 283 284 284 286 286 288 290 286 289 292 293 293 293 294
294 289 291 293 291 285 292 298 281 280 277 278 283 284 278 277 276 274 275 276 277 277 278 278 278 278 278 278 278 278 278 279 279 280 280 281 282 282 283 283 284 285 287 287 290 289 288 288 289
Wind_Speed
6 3 3 3 4 4 3 4 4 2 2 1 3 7 8 5 2 2 7 17 11 15 18 20 21 24 25 24 23 17 11 9 5 7 7 7 7 9 11 13 17 19 19 19 20 21 20 20 20
7 4 2 2 4 3 4 2 3 1 3 2 5 3 6 3 3 4 4 15 13 14 17 19 21 22 23 25 24 23 16 9 7 5 9 10 9 10 11 13 14 18 21 20 20 21 22 21 21
3 3 3 4 3 4 4 3 5 2 3 2 3 7 3 2 3 3 8 12 12 16 17 18 19 21 21 22 23 23 21 16 10 6 6 10 13 11 13 15 16 19 22 23 22 23 22 22 23
4 5 4 4 5 4 5 5 4 3 4 6 3 5 3 5 2 4 8 12 13 14 17 17 17 19 21 21 21 22 22 21 17 10 7 7 13 15 16 17 19 19 21 23 24 25 24 23 24
4 3 3 0 4 2 2 3 2 3 3 1 2 6 6 2 7 7 11 11 12 12 16 17 17 18 19 21 21 20 21 20 20 16 9 10 9 15 18 20 20 22 22 22 25 25 23 22 22
4 3 3 3 4 3 1 2 2 1 1 1 2 6 4 3 4 7 7 10 10 12 15 17 18 19 20 20 21 19 20 18 18 18 15 11 13 14 19 22 22 24 26 25 24 23 23 22 22
5 4 4 4 3 4 5 2 3 4 2 2 5 5 3 1 4 4 8 9 10 13 16 18 19 21 20 19 19 20 22 19 15 16 16 14 12 15 17 22 24 25 27 29 27 26 25 24 22
4 3 2 4 4 4 3 1 4 3 3 0 3 5 4 3 2 3 5 9 11 14 16 17 18 20 22 23 21 20 21 21 17 14 15 16 13 13 17 20 24 27 28 30 30 28 26 26 23
3 3 3 3 5 2 1 1 2 4 4 1 3 4 6 6 3 4 6 10 13 14 14 16 19 20 21 23 24 23 21 20 20 19 15 15 16 15 14 19 20 27 30 29 31 30 27 27 24
4 3 7 1 1 3 1 1 1 1 3 3 4 2 7 4 3 5 6 9 12 13 14 17 20 22 23 22 23 25 23 22 22 21 20 18 16 17 18 16 22 23 27 32 33 36 32 28 28
3 5 3 2 4 2 2 2 2 3 6 9 6 9 7 5 5 4 3 4 5 8 13 17 20 21 22 23 23 22 24 25 24 22 22 21 20 17 18 19 17 24 26 29 34 36 35 34 34
2 4 4 4 4 4 3 2 4 7 7 4 7 4 7 8 7 6 4 2 5 9 11 16 19 22 22 21 21 24 24 25 26 24 23 23 23 21 18 21 21 17 24 27 33 37 38 39 39
3 3 4 2 3 5 2 7 7 8 8 6 7 6 6 6 7 6 5 1 5 11 16 19 23 23 21 22 25 26 26 25 26 27 25 23 23 23 22 20 23 22 19 26 32 33 33 37 35
1 3 7 7 4 3 3 2 3 4 2 8 8 9 8 8 11 9 6 3 5 12 18 23 25 22 22 25 26 26 24 24 24 28 28 26 23 23 23 22 23 23 22 27 31 33 32 35 34
2 5 7 5 5 3 2 8 10 6 6 8 9 9 7 7 9 7 5 1 6 10 16 22 22 23 25 25 26 25 25 25 23 28 29 29 27 24 24 24 23 23 23 19 30 32 33 35 34
2 1 3 1 6 2 4 8 5 4 8 11 10 9 7 6 5 5 2 4 9 16 20 21 22 24 24 24 27 28 25 25 23 28 29 29 28 25 25 25 24 21 24 17 13 33 33 38 36
1 4 4 6 7 3 5 8 5 7 8 9 9 9 8 6 5 5 2 6 9 10 13 18 21 22 23 23 24 29 27 24 22 26 28 28 26 26 25 26 24 20 23 21 14 9 3 32 36
4 4 5 5 2 4 7 18 15 9 10 14 10 8 8 7 5 4 3 6 8 9 12 15 17 18 21 22 22 23 23 23 21 22 29 27 27 25 26 25 24 20 16 19 22 21 17 3 4
2 3 6 3 2 2 8 12 20 11 12 11 10 9 9 6 5 3 4 4 5 8 13 16 15 15 17 18 18 17 21 23 24 24 28 28 27 26 26 27 27 21 15 17 23 23 23 24 19
3 3 6 6 2 3 6 17 20 4 5 7 8 7 7 5 2 1 4 4 5 8 10 13 14 15 15 15 15 20 19 21 24 26 28 22 24 25 26 26 26 24 16 14 19 29 21 15 33
4 5 3 3 7 2 8 8 5 4 2 1 4 5 5 6 3 5 6 6 5 7 9 10 14 15 14 12 17 16 18 19 18 19 21 21 22 18 19 22 22 22 15 13 18 21 25 16 23
2 2 2 1 4 3 4 6 7 4 6 4 5 6 6 3 3 5 7 4 5 9 9 12 14 15 11 15 14 15 16 17 16 20 24 25 20 10 11 13 11 14 15 10 10 14 18 14 18
3 1 1 3 3 4 1 3 8 3 7 7 8 7 5 4 5 6 4 5 7 9 12 15 16 13 14 15 14 14 16 16 16 17 20 21 12 10 5 7 8 8 9 12 14 10 8 15 15
3 4 4 3 3 3 4 3 7 4 6 1 2 6 4 4 5 4 4 7 9 12 14 16 14 16 14 16 16 14 14 15 15 13 16 12 13 11 3 3 6 7 8 11 12 10 9 10 13
4 4 3 5 4 5 2 1 11 6 6 6 7 6 4 6 4 3 4 7 10 14 16 15 14 16 17 17 16 14 13 15 14 12 10 15 14 10 5 5 8 7 9 10 10 11 13 10 14
3 5 5 5 2 5 3 6 6 5 3 4 4 4 3 5 3 4 5 8 11 13 14 16 16 17 17 15 15 13 12 13 12 10 9 12 10 7 6 5 7 9 8 7 9 10 9 13 14
3 1 2 6 1 2 3 7 9 2 5 4 6 4 6 5 4 3 6 9 12 15 16 16 17 17 16 15 14 13 12 11 9 9 9 10 9 8 5 4 5 6 8 10 7 12 9 9 9
1 3 2 3 1 5 5 6 6 5 4 5 7 6 7 5 5 3 4 10 13 14 15 15 14 15 15 13 12 11 10 8 6 6 6 5 3 4 4 4 5 4 6 6 11 12 8 9 10
1 1 3 3 3 4 3 7 7 6 6 6 8 5 6 4 4 3 5 10 12 13 13 14 14 14 13 11 10 8 7 5 3 2 3 2 0 2 2 2 5 5 5 8 10 12 12 14 13
1 5 4 4 5 1 3 8 3 5 5 4 8 6 3 3 4 3 7 10 13 13 13 13 12 12 11 9 8 7 5 4 2 2 2 3 4 4 6 6 7 6 3 8 12 14 14 15 16
Wind_Direction
349 338 356 56 67 67 252 246 321 101 76 285 108 100 116 55 44 184 81 26 46 39 26 17 18 24 23 21 20 20 16 20 285 273 263 251 229 213 198 193 192 192 189 184 179 178 178 180 178
354 36 79 83 103 116 259 279 135 227 177 116 66 62 52 82 52 93 104 24 56 46 27 16 8 16 18 19 16 13 13 4 4 319 270 252 236 222 214 204 196 197 194 186 182 182 183 181 180
8 28 85 116 126 187 197 195 175 164 12 74 74 56 64 108 64 89 24 25 49 42 30 20 15 17 14 11 11 11 8 5 354 309 317 259 246 228 225 217 204 203 200 193 192 187 190 186 186
14 21 27 107 212 242 199 177 171 121 14 34 116 68 63 39 97 77 39 49 64 42 25 21 11 11 11 7 5 4 5 3 354 347 295 293 255 241 228 228 216 212 206 198 194 193 190 194 195
49 58 73 118 248 195 65 152 212 121 117 202 48 164 133 62 99 84 61 62 54 33 19 13 5 357 354 359 360 359 357 356 355 345 320 282 268 245 239 230 226 219 215 209 200 198 197 196 199
43 96 83 211 241 124 63 297 141 96 197 25 73 116 154 128 80 60 51 45 28 16 5 1 354 350 346 341 344 350 349 346 347 347 333 299 276 255 238 239 231 228 223 220 215 209 209 210 206
112 92 202 211 225 176 187 136 151 170 128 233 160 122 210 125 91 70 64 50 29 9 360 356 350 347 342 333 332 329 337 339 335 337 338 318 296 268 256 241 238 232 229 227 222 221 218 215 216
103 94 225 241 206 214 176 119 176 160 225 141 166 192 226 188 81 57 44 34 13 5 357 353 347 341 338 335 329 323 324 324 324 324 328 326 302 291 261 251 238 238 232 230 228 228 220 219 220
91 63 247 247 168 166 13 123 312 326 127 247 23 104 152 140 115 50 20 11 8 4 359 350 348 342 335 331 327 324 317 317 316 316 317 316 316 300 294 261 256 235 236 230 229 224 220 220 220
99 137 220 162 125 147 116 128 267 264 197 240 91 70 131 130 86 67 37 18 11 359 353 343 339 338 335 332 323 322 322 314 314 314 313 313 309 307 301 287 262 247 237 234 227 226 218 216 216
166 206 207 190 154 149 193 251 244 210 249 218 210 186 175 157 147 118 89 60 33 348 333 336 334 333 334 332 326 318 316 318 310 308 309 305 306 302 303 299 283 258 246 236 232 228 222 214 213
237 248 249 175 159 164 210 172 266 212 231 185 204 155 162 172 168 155 125 64 343 336 338 336 337 334 332 329 322 316 313 311 310 307 305 307 301 299 297 303 292 278 254 244 236 231 225 214 217
209 285 308 338 281 240 175 223 224 241 228 158 159 171 186 183 167 153 156 173 334 335 336 339 336 334 333 323 319 317 311 305 303 302 298 302 300 293 292 295 297 287 275 249 240 233 225 211 211
278 281 274 275 258 235 218 283 146 253 157 178 178 203 202 189 182 170 160 135 350 336 335 333 333 334 325 319 319 317 314 308 301 296 294 293 295 292 285 286 293 293 283 251 235 224 211 205 202
339 316 316 232 203 203 111 294 229 232 169 184 212 220 218 196 179 161 141 62 350 344 340 336 334 327 321 321 321 315 310 304 301 295 293 289 287 287 283 279 283 287 282 245 231 213 201 194 179
323 82 336 16 141 195 121 264 281 200 186 229 216 228 230 203 170 134 92 9 345 336 338 335 331 326 321 317 314 316 309 306 298 297 294 291 288 280 282 273 274 280 287 237 208 202 189 170 169
351 245 215 303 190 141 192 267 255 198 209 229 226 229 223 189 138 137 72 4 352 348 338 330 326 322 319 314 313 310 308 307 297 296 297 293 288 281 278 270 268 276 270 235 229 228 166 173 167
195 234 249 239 222 210 253 261 273 255 223 229 230 230 220 203 163 128 52 9 347 335 326 325 323 319 318 318 319 316 313 310 300 294 296 295 287 279 278 266 263 264 262 256 203 194 182 203 157
143 228 243 248 344 273 249 274 277 276 247 243 229 231 215 166 127 74 21 358 323 315 322 327 326 324 321 320 312 309 305 300 299 295 297 294 287 281 274 266 255 257 249 258 193 187 181 168 191
184 256 263 282 10 345 302 292 286 281 246 248 224 212 160 134 87 309 321 302 293 307 317 324 325 326 323 321 304 303 297 295 295 293 296 303 301 280 268 262 250 245 244 247 232 189 189 170 182
208 208 240 238 331 263 311 294 330 261 246 330 41 107 116 150 197 294 303 297 295 310 320 317 319 316 315 315 307 301 303 296 296 300 300 305 309 271 252 241 236 227 228 236 247 224 188 146 190
282 90 79 17 46 267 43 282 293 274 277 221 195 164 159 147 307 283 293 292 305 314 314 313 310 310 309 310 306 297 289 288 292 297 299 305 296 261 211 209 204 204 200 198 250 233 213 178 187
209 93 194 135 102 42 3 61 270 358 283 255 223 173 175 229 265 281 273 272 307 313 313 314 314 314 311 315 307 297 285 284 289 294 298 299 306 293 214 200 235 238 195 212 238 232 208 189 191
116 76 54 58 89 12 234 134 277 204 212 151 105 172 217 297 277 256 249 296 312 316 318 322 320 317 318 318 309 299 287 289 291 295 307 289 280 284 295 239 251 248 234 233 240 240 234 216 220
78 68 323 349 7 228 245 354 250 264 224 200 191 222 262 272 261 259 289 313 325 320 321 326 321 323 320 316 310 302 290 287 288 293 307 296 284 300 343 310 280 262 257 221 224 230 228 223 229
174 155 161 226 244 273 347 237 253 222 257 247 246 249 270 282 287 283 314 331 327 320 324 327 327 320 323 318 314 308 295 287 283 287 287 274 258 299 332 307 295 280 277 249 230 253 221 219 225
173 199 148 100 70 27 233 283 289 233 290 295 287 265 290 278 286 295 341 330 325 329 328 328 328 326 325 322 321 316 307 299 293 287 281 277 297 307 293 281 262 242 230 223 175 215 198 192 203
124 153 68 12 16 292 287 285 243 303 282 309 295 283 295 290 306 334 320 325 330 331 330 331 333 330 331 333 332 322 319 315 305 290 287 269 262 268 287 279 258 242 215 193 176 167 152 174 196
85 256 59 114 126 180 298 269 219 218 217 247 277 293 276 275 267 284 308 329 332 334 339 339 344 343 343 347 347 343 343 342 335 323 275 269 198 132 155 190 215 221 159 161 142 125 147 165 154
228 196 148 122 255 197 147 273 201 216 232 245 282 294 266 217 254 297 322 339 340 342 347 348 354 355 357 2 10 14 20 29 53 83 100 103 100 113 119 139 140 146 132 107 117 125 132 130 127